�������l�o���
Date,Time,MP-1(��Sv/h),MP-2(��Sv/h),MP-3(��Sv/h),MP-4(��Sv/h),MP-5(��Sv/h),MP-6(��Sv/h),MP-7(��Sv/h),MP-8(��Sv/h),����,����(m/s),���J
2021/09/03,00:00,0.586,0.868,0.556,1.057,0.744,0.357,0.619,0.581,�k�k��,6.3,��
2021/09/03,00:10,0.585,0.868,0.555,1.057,0.743,0.356,0.618,0.582,�k�k��,6.3,�L
2021/09/03,00:20,0.586,0.869,0.557,1.057,0.745,0.358,0.618,0.582,�k�k��,6.1,�L
2021/09/03,00:30,0.586,0.867,0.556,1.058,0.745,0.357,0.619,0.581,�k�k��,5.7,��
2021/09/03,00:40,0.587,0.869,0.556,1.056,0.744,0.359,0.618,0.582,�k�k��,5.8,��
2021/09/03,00:50,0.586,0.868,0.555,1.056,0.743,0.357,0.620,0.582,�k�k��,6.2,��
2021/09/03,01:00,0.587,0.868,0.556,1.057,0.745,0.358,0.619,0.581,�k�k��,6.4,�L
2021/09/03,01:10,0.586,0.869,0.557,1.056,0.746,0.356,0.618,0.583,�k�k��,6.4,�L
2021/09/03,01:20,0.586,0.868,0.555,1.060,0.745,0.357,0.619,0.582,�k,6.7,�L
2021/09/03,01:30,0.586,0.867,0.553,1.056,0.744,0.357,0.618,0.583,�k,6.3,�L
2021/09/03,01:40,0.586,0.868,0.557,1.057,0.746,0.359,0.617,0.580,�k�k��,6.7,�L
2021/09/03,01:50,0.583,0.870,0.556,1.057,0.743,0.360,0.618,0.579,�k�k��,6.0,�L
2021/09/03,02:00,0.586,0.868,0.557,1.058,0.743,0.358,0.618,0.580,�k�k��,6.8,��
2021/09/03,02:10,0.583,0.865,0.554,1.057,0.745,0.358,0.618,0.579,�k�k��,6.0,��
2021/09/03,02:20,0.584,0.866,0.555,1.059,0.745,0.358,0.618,0.580,�k�k��,6.5,��
2021/09/03,02:30,0.585,0.866,0.555,1.058,0.744,0.358,0.617,0.579,�k�k��,6.7,��
2021/09/03,02:40,0.586,0.868,0.554,1.054,0.745,0.358,0.616,0.578,�k�k��,6.3,��
2021/09/03,02:50,0.584,0.868,0.554,1.056,0.745,0.358,0.617,0.580,�k�k��,6.5,��
2021/09/03,03:00,0.584,0.866,0.556,1.057,0.744,0.356,0.618,0.579,�k�k��,5.6,��
2021/09/03,03:10,0.583,0.866,0.554,1.056,0.743,0.357,0.617,0.579,�k�k��,6.0,��
2021/09/03,03:20,0.585,0.866,0.554,1.056,0.745,0.356,0.616,0.580,�k�k��,6.0,��
2021/09/03,03:30,0.584,0.869,0.555,1.054,0.744,0.358,0.617,0.580,�k�k��,5.9,��
2021/09/03,03:40,0.583,0.866,0.555,1.056,0.741,0.357,0.618,0.580,�k�k��,6.6,��
2021/09/03,03:50,0.583,0.866,0.554,1.058,0.742,0.358,0.618,0.580,�k�k��,5.6,��
2021/09/03,04:00,0.582,0.867,0.553,1.058,0.745,0.358,0.617,0.579,�k�k��,6.3,��
2021/09/03,04:10,0.584,0.869,0.554,1.057,0.744,0.357,0.617,0.579,�k�k��,5.8,��
2021/09/03,04:20,0.585,0.865,0.556,1.058,0.744,0.357,0.616,0.582,�k�k��,5.8,��
2021/09/03,04:30,0.583,0.865,0.554,1.055,0.741,0.357,0.618,0.580,�k�k��,5.5,��
2021/09/03,04:40,0.584,0.866,0.554,1.057,0.745,0.356,0.617,0.578,�k�k��,6.1,��
2021/09/03,04:50,0.584,0.866,0.556,1.058,0.744,0.357,0.616,0.580,�k�k��,6.5,��
2021/09/03,05:00,0.584,0.866,0.555,1.060,0.745,0.357,0.617,0.580,�k�k��,6.5,��
2021/09/03,05:10,0.585,0.865,0.554,1.058,0.745,0.357,0.617,0.580,�k�k��,6.3,��
2021/09/03,05:20,0.584,0.866,0.554,1.058,0.745,0.357,0.618,0.580,�k�k��,5.4,��
2021/09/03,05:30,0.583,0.869,0.555,1.059,0.744,0.357,0.617,0.581,�k�k��,5.7,��
2021/09/03,05:40,0.585,0.869,0.555,1.057,0.744,0.357,0.615,0.582,�k�k��,6.1,��
2021/09/03,05:50,0.583,0.866,0.555,1.058,0.744,0.357,0.618,0.581,�k�k��,5.8,��
2021/09/03,06:00,0.584,0.868,0.556,1.057,0.744,0.358,0.617,0.581,�k�k��,6.8,��
2021/09/03,06:10,0.586,0.865,0.555,1.057,0.742,0.357,0.617,0.581,�k�k��,6.1,��
2021/09/03,06:20,0.584,0.868,0.555,1.057,0.744,0.356,0.619,0.582,�k�k��,6.4,��
2021/09/03,06:30,0.584,0.865,0.556,1.060,0.746,0.357,0.617,0.581,�k�k��,5.9,��
2021/09/03,06:40,0.585,0.867,0.555,1.056,0.745,0.357,0.618,0.582,�k�k��,5.7,��
2021/09/03,06:50,0.587,0.866,0.555,1.060,0.744,0.357,0.617,0.582,�k�k��,5.1,��
2021/09/03,07:00,0.585,0.867,0.556,1.057,0.745,0.357,0.617,0.582,�k�k��,5.9,��
2021/09/03,07:10,0.585,0.867,0.554,1.057,0.744,0.357,0.619,0.582,�k�k��,5.0,��
2021/09/03,07:20,0.583,0.867,0.555,1.061,0.744,0.357,0.618,0.581,�k�k��,5.0,��
2021/09/03,07:30,0.585,0.867,0.555,1.058,0.744,0.357,0.617,0.580,�k�k��,5.3,��
2021/09/03,07:40,0.585,0.867,0.555,1.057,0.744,0.357,0.619,0.581,�k�k��,5.1,��
2021/09/03,07:50,0.585,0.867,0.555,1.058,0.746,0.357,0.618,0.580,�k,4.6,��
2021/09/03,08:00,0.584,0.865,0.555,1.057,0.744,0.355,0.617,0.581,�k�k��,4.8,��
2021/09/03,08:10,0.583,0.864,0.553,1.057,0.743,0.357,0.618,0.583,�k�k��,5.1,��
2021/09/03,08:20,0.584,0.864,0.555,1.059,0.742,0.358,0.618,0.581,�k�k��,4.5,��
2021/09/03,08:30,0.585,0.866,0.553,1.058,0.743,0.356,0.619,0.581,�k�k��,4.4,��
2021/09/03,08:40,0.584,0.865,0.554,1.057,0.746,0.356,0.618,0.581,�k�k��,4.3,��
2021/09/03,08:50,0.583,0.865,0.553,1.058,0.743,0.356,0.618,0.579,�k�k��,4.8,��
2021/09/03,09:00,0.584,0.864,0.555,1.058,0.744,0.356,0.618,0.579,�k�k��,4.8,��
2021/09/03,09:10,0.584,0.866,0.555,1.057,0.743,0.356,0.619,0.581,�k,4.1,��
2021/09/03,09:20,0.583,0.865,0.553,1.059,0.743,0.356,0.619,0.580,�k�k��,5.2,�L
2021/09/03,09:30,0.585,0.864,0.552,1.059,0.745,0.356,0.618,0.580,�k�k��,4.2,�L
2021/09/03,09:40,0.583,0.864,0.551,1.058,0.745,0.357,0.618,0.580,�k,4.3,��
2021/09/03,09:50,0.584,0.866,0.553,1.058,0.745,0.356,0.617,0.580,�k,4.2,�L
2021/09/03,10:00,0.585,0.863,0.554,1.059,0.745,0.357,0.618,0.582,�k,3.7,�L
2021/09/03,10:10,0.584,0.864,0.556,1.059,0.747,0.357,0.619,0.580,�k�k��,5.2,�L
2021/09/03,10:20,0.585,0.866,0.555,1.059,0.745,0.356,0.618,0.580,�k�k��,7.5,�L
2021/09/03,10:30,0.586,0.864,0.555,1.061,0.745,0.356,0.618,0.580,�k�k��,5.7,��
2021/09/03,10:40,0.583,0.862,0.554,1.059,0.746,0.357,0.619,0.580,�k,5.8,��
2021/09/03,10:50,0.585,0.862,0.555,1.059,0.744,0.357,0.620,0.580,�k,7.1,��
2021/09/03,11:00,0.586,0.865,0.553,1.058,0.745,0.356,0.619,0.579,�k,6.7,��
2021/09/03,11:10,0.586,0.864,0.553,1.060,0.744,0.357,0.619,0.579,�k,5.3,��
2021/09/03,11:20,0.583,0.865,0.553,1.060,0.745,0.358,0.617,0.580,�k,5.3,�L
2021/09/03,11:30,0.582,0.865,0.555,1.059,0.746,0.357,0.619,0.578,�k,5.2,�L
2021/09/03,11:40,0.585,0.862,0.554,1.058,0.745,0.357,0.618,0.580,�k,5.8,�L
2021/09/03,11:50,0.585,0.861,0.552,1.059,0.744,0.358,0.619,0.578,�k�k��,5.0,�L
2021/09/03,12:00,0.586,0.859,0.555,1.061,0.744,0.357,0.619,0.579,�k,5.0,�L
2021/09/03,12:10,0.586,0.859,0.555,1.060,0.746,0.358,0.618,0.578,�k�k��,5.2,�L
2021/09/03,12:20,0.586,0.868,0.555,1.060,0.746,0.358,0.619,0.581,�k,6.3,�L
2021/09/03,12:30,0.584,0.862,0.555,1.061,0.746,0.359,0.619,0.580,�k�k��,5.9,�L
2021/09/03,12:40,0.585,0.866,0.554,1.062,0.747,0.358,0.618,0.580,�k�k��,5.5,�L
2021/09/03,12:50,0.586,0.866,0.555,1.062,0.747,0.357,0.620,0.581,�k�k��,5.7,�L
2021/09/03,13:00,0.585,0.865,0.556,1.060,0.749,0.358,0.619,0.579,�k�k��,6.4,�L
2021/09/03,13:10,0.586,0.867,0.558,1.061,0.748,0.359,0.619,0.581,�k�k��,5.7,�L
2021/09/03,13:20,0.586,0.866,0.558,1.061,0.747,0.359,0.618,0.580,�k�k��,6.3,�L
2021/09/03,13:30,0.586,0.866,0.554,1.061,0.748,0.358,0.620,0.580,�k�k��,5.9,�L
2021/09/03,13:40,0.589,0.865,0.555,1.060,0.747,0.357,0.620,0.581,�k�k��,6.6,�L
2021/09/03,13:50,0.587,0.866,0.554,1.062,0.747,0.357,0.617,0.580,�k�k��,6.5,��
2021/09/03,14:00,0.585,0.865,0.554,1.063,0.747,0.358,0.620,0.580,�k�k��,5.9,�L
2021/09/03,14:10,0.585,0.867,0.555,1.062,0.747,0.357,0.619,0.580,�k�k��,6.3,�L
2021/09/03,14:20,0.588,0.867,0.554,1.060,0.747,0.358,0.619,0.580,�k��,5.5,��
2021/09/03,14:30,0.587,0.866,0.554,1.060,0.747,0.358,0.620,0.581,�k�k��,5.6,�L
2021/09/03,14:40,0.586,0.866,0.554,1.061,0.746,0.358,0.621,0.578,�k�k��,5.0,�L
2021/09/03,14:50,0.587,0.866,0.555,1.060,0.747,0.356,0.619,0.579,�k�k��,5.5,�L
2021/09/03,15:00,0.587,0.866,0.554,1.061,0.745,0.357,0.620,0.581,�k�k��,5.2,�L
2021/09/03,15:10,0.587,0.869,0.554,1.062,0.748,0.357,0.621,0.579,�k�k��,5.6,�L
2021/09/03,15:20,0.588,0.866,0.556,1.060,0.747,0.358,0.620,0.580,�k�k��,5.3,�L
2021/09/03,15:30,0.588,0.869,0.555,1.060,0.747,0.357,0.619,0.580,�k�k��,5.6,��
2021/09/03,15:40,0.586,0.868,0.554,1.062,0.746,0.358,0.620,0.580,�k�k��,4.8,��
2021/09/03,15:50,0.589,0.867,0.556,1.059,0.747,0.358,0.620,0.581,�k�k��,4.4,��
2021/09/03,16:00,0.587,0.870,0.557,1.061,0.747,0.356,0.619,0.582,�k�k��,4.1,��
2021/09/03,16:10,0.587,0.869,0.557,1.063,0.747,0.356,0.619,0.580,�k�k��,4.0,��
2021/09/03,16:20,0.586,0.869,0.558,1.063,0.747,0.357,0.619,0.579,�k�k��,3.8,��
2021/09/03,16:30,0.585,0.868,0.556,1.062,0.748,0.356,0.620,0.580,�k�k��,3.8,��
2021/09/03,16:40,0.587,0.870,0.556,1.065,0.747,0.357,0.620,0.580,�k�k��,5.1,��
2021/09/03,16:50,0.586,0.871,0.558,1.061,0.749,0.356,0.621,0.581,�k,4.6,��
2021/09/03,17:00,0.586,0.870,0.557,1.062,0.747,0.356,0.620,0.581,�k,4.4,��
2021/09/03,17:10,0.588,0.872,0.558,1.060,0.748,0.357,0.619,0.582,�k,4.7,��
2021/09/03,17:20,0.586,0.870,0.557,1.062,0.747,0.358,0.622,0.582,�k�k��,4.3,��
2021/09/03,17:30,0.586,0.871,0.559,1.065,0.746,0.357,0.619,0.580,�k,4.8,��
2021/09/03,17:40,0.586,0.870,0.558,1.062,0.749,0.357,0.621,0.581,�k�k��,5.0,��
2021/09/03,17:50,0.587,0.871,0.558,1.063,0.748,0.358,0.620,0.582,�k�k��,4.9,��
2021/09/03,18:00,0.587,0.869,0.558,1.060,0.747,0.358,0.619,0.581,�k�k��,5.3,��
2021/09/03,18:10,0.586,0.871,0.558,1.061,0.750,0.357,0.619,0.582,�k,4.8,�L
2021/09/03,18:20,0.587,0.871,0.557,1.064,0.748,0.357,0.621,0.581,�k�k��,5.1,�L
2021/09/03,18:30,0.588,0.871,0.557,1.063,0.747,0.357,0.620,0.581,�k,5.1,�L
2021/09/03,18:40,0.587,0.872,0.559,1.063,0.749,0.358,0.620,0.581,�k,4.4,�L
2021/09/03,18:50,0.586,0.872,0.559,1.063,0.751,0.358,0.619,0.582,�k,4.5,�L
2021/09/03,19:00,0.588,0.872,0.557,1.064,0.750,0.358,0.621,0.582,�k,5.1,�L
2021/09/03,19:10,0.587,0.873,0.559,1.062,0.750,0.359,0.620,0.583,�k�k��,3.5,�L
2021/09/03,19:20,0.588,0.872,0.559,1.063,0.752,0.358,0.621,0.582,�k�k��,3.4,�L
2021/09/03,19:30,0.590,0.871,0.559,1.064,0.752,0.358,0.620,0.582,�k�k��,3.4,�L
2021/09/03,19:40,0.587,0.871,0.559,1.065,0.751,0.359,0.619,0.583,�k�k��,3.7,�L
2021/09/03,19:50,0.588,0.869,0.558,1.064,0.751,0.359,0.620,0.583,�k�k��,3.4,�L
2021/09/03,20:00,0.587,0.869,0.560,1.063,0.750,0.359,0.619,0.582,�k,3.8,�L
2021/09/03,20:10,0.587,0.866,0.559,1.064,0.750,0.358,0.620,0.582,�k�k��,3.9,�L
2021/09/03,20:20,0.590,0.867,0.560,1.065,0.748,0.362,0.619,0.582,�k,3.6,�L
2021/09/03,20:30,0.588,0.863,0.559,1.062,0.748,0.362,0.617,0.582,�k,3.5,�L
2021/09/03,20:40,0.586,0.856,0.557,1.059,0.742,0.361,0.617,0.580,�k,3.8,�L
2021/09/03,20:50,0.582,0.848,0.553,1.042,0.730,0.358,0.615,0.578,�k��,5.3,�L
2021/09/03,21:00,0.580,0.847,0.552,1.038,0.731,0.359,0.615,0.579,�k,3.7,�L
2021/09/03,21:10,0.581,0.848,0.553,1.034,0.732,0.359,0.612,0.575,�k��,4.1,�L
2021/09/03,21:20,0.579,0.845,0.552,1.026,0.727,0.360,0.612,0.576,�k,3.7,�L
2021/09/03,21:30,0.576,0.839,0.550,1.023,0.727,0.360,0.610,0.575,�k�k��,4.3,�L
2021/09/03,21:40,0.573,0.839,0.549,1.016,0.722,0.359,0.609,0.572,�k�k��,6.5,�L
2021/09/03,21:50,0.576,0.838,0.550,1.010,0.714,0.359,0.608,0.570,�k��,5.6,�L
2021/09/03,22:00,0.577,0.839,0.551,1.011,0.718,0.360,0.607,0.571,��,4.5,�L
2021/09/03,22:10,0.578,0.838,0.551,1.010,0.716,0.360,0.606,0.572,�k��,4.1,�L
2021/09/03,22:20,0.579,0.842,0.553,1.013,0.717,0.362,0.607,0.571,�k��,5.9,�L
2021/09/03,22:30,0.581,0.846,0.551,1.019,0.721,0.360,0.606,0.572,�k��,5.4,�L
2021/09/03,22:40,0.580,0.846,0.551,1.021,0.721,0.362,0.607,0.572,�k��,4.2,�L
2021/09/03,22:50,0.581,0.844,0.548,1.021,0.720,0.359,0.607,0.572,�k��,5.0,�L
2021/09/03,23:00,0.577,0.844,0.548,1.020,0.719,0.357,0.607,0.572,�k��,2.8,�L
2021/09/03,23:10,0.579,0.843,0.546,1.020,0.715,0.356,0.605,0.572,�k,1.5,�L
2021/09/03,23:20,0.575,0.838,0.543,1.015,0.709,0.355,0.603,0.570,�k,3.2,�L
2021/09/03,23:30,0.571,0.836,0.543,1.014,0.711,0.355,0.605,0.569,�k�k��,3.1,�L
2021/09/03,23:40,0.571,0.830,0.540,1.014,0.709,0.353,0.603,0.568,�k,4.7,�L
2021/09/03,23:50,0.570,0.835,0.542,1.009,0.706,0.354,0.604,0.568,�k��,4.0,�L
